Wind_Speed
35 37 39 40 40 38 38 36 34 30 30 29 29 30 27 26 29 28 24 22 24 22 18 21 20 19 18 19 21 23 25 26
44 41 41 42 42 42 41 40 37 33 33 32 35 34 29 30 33 33 35 32 30 25 24 27 24 23 22 20 25 27 26 28
46 46 43 44 46 45 41 37 36 38 36 34 35 34 32 33 36 34 31 32 32 29 34 33 27 25 26 28 29 29 34 36
50 50 49 49 49 46 41 39 41 40 38 35 37 36 35 38 36 32 33 31 35 35 31 28 27 28 31 31 36 39 41 45
50 49 49 50 49 46 43 41 41 41 38 37 38 40 41 39 36 34 35 35 32 32 32 31 33 34 34 35 37 41 44 50
49 49 50 51 51 49 48 43 42 42 42 41 40 41 43 43 39 40 39 40 37 38 37 37 40 40 42 44 45 49 51 51
38 49 51 52 52 52 53 51 49 46 45 46 46 46 43 44 45 45 43 45 46 46 47 46 42 46 48 49 52 55 54 52
35 39 50 53 56 55 54 54 53 50 48 48 48 49 45 46 48 46 46 49 49 50 53 52 51 52 51 52 53 54 55 55
43 42 36 49 53 59 60 58 57 55 52 53 47 47 46 48 48 49 52 51 50 52 56 56 57 57 59 55 53 56 56 66
52 53 50 48 46 58 60 59 57 57 51 51 50 45 49 49 51 50 54 55 52 53 57 62 62 59 59 60 61 65 69 71
51 50 50 48 50 52 61 62 60 59 58 56 54 54 55 53 51 54 57 57 53 56 61 62 61 61 64 67 70 71 73 76
44 45 47 44 43 49 57 63 64 61 58 58 54 55 55 55 54 57 58 54 57 63 62 63 64 65 70 72 77 77 80 82
50 50 48 44 42 46 52 56 61 63 59 57 52 52 51 56 54 56 54 56 61 66 64 62 65 69 73 76 79 82 82 80
50 50 50 45 42 43 44 49 53 59 61 56 55 54 55 56 58 63 65 67 64 63 65 66 71 74 82 84 82 83 80 87
51 53 54 47 44 42 43 42 46 50 58 59 59 60 57 58 59 58 61 63 68 70 74 75 79 80 79 80 80 82 89 88
50 52 55 47 45 43 42 42 43 45 50 57 61 64 63 63 65 67 70 74 76 79 79 79 80 81 80 85 85 88 92 92
48 53 60 48 43 41 41 42 41 41 45 52 59 64 67 67 69 69 71 76 76 76 78 79 81 79 80 88 89 89 86 91
44 55 54 41 36 35 38 40 41 43 44 47 49 60 67 70 71 74 75 76 77 78 80 79 83 84 86 86 95 89 89 91
47 55 51 39 33 30 32 37 43 46 47 49 50 55 57 61 67 68 69 73 76 78 82 85 89 91 89 87 89 90 91 93
47 56 49 41 35 31 29 31 35 41 46 50 54 56 58 61 62 65 69 72 74 76 79 80 79 80 81 83 84 84 84 83
Wind_Direction
257 261 256 257 258 260 265 268 268 268 270 275 273 268 266 266 271 274 283 289 287 291 281 286 283 289 283 282 289 286 289 295
257 262 260 255 256 257 259 262 268 271 274 272 272 273 266 268 269 272 278 282 286 280 283 288 280 282 281 278 284 282 286 291
255 258 259 257 254 255 258 262 265 271 271 271 271 273 262 269 274 277 279 280 281 277 283 282 272 277 280 280 278 281 287 295
257 256 259 257 255 255 260 263 266 266 267 270 268 268 267 267 274 276 284 283 277 279 277 269 275 276 275 282 281 282 286 295
254 255 254 256 256 255 256 260 263 265 265 269 268 270 267 268 274 278 283 284 286 284 275 267 285 287 289 282 284 283 286 292
254 254 253 254 254 254 253 254 258 261 263 266 267 265 266 268 273 278 278 285 285 282 282 276 286 288 293 289 289 291 292 294
267 257 255 254 256 256 255 254 254 256 261 265 268 266 267 268 270 275 276 284 284 282 286 279 288 288 292 290 291 291 293 293
283 274 260 257 255 257 257 258 259 258 259 261 267 268 267 265 268 271 275 285 284 285 288 287 291 293 292 291 288 291 291 288
284 282 282 267 259 256 257 257 259 263 264 265 266 269 267 267 269 271 276 278 281 283 284 283 289 290 289 287 287 292 289 295
287 285 279 279 270 259 256 257 258 260 262 262 266 259 262 262 269 272 273 277 278 279 277 285 286 287 285 284 287 290 297 297
296 293 285 276 271 266 257 256 255 257 259 262 261 260 265 268 267 264 269 275 278 273 278 283 287 283 284 283 286 294 295 298
300 298 291 281 272 262 258 253 251 252 257 259 260 258 260 264 263 265 269 271 271 270 275 280 282 283 284 287 288 292 296 298
290 294 297 286 277 265 258 256 253 250 252 255 258 257 261 263 265 267 265 266 270 276 279 277 278 276 282 285 290 294 296 299
288 293 298 290 282 269 263 258 256 251 250 250 253 255 258 261 262 264 267 268 270 272 274 275 275 279 285 290 293 295 297 300
283 290 300 291 285 276 265 263 261 256 251 253 253 253 258 260 262 261 260 261 266 270 275 279 282 288 289 289 291 292 296 298
281 292 298 291 286 278 267 264 264 262 256 253 252 254 258 261 262 262 264 269 272 276 279 279 280 285 286 287 291 291 294 295
282 291 294 289 286 276 272 272 269 263 262 256 257 257 260 263 265 268 269 274 276 279 282 281 282 285 287 289 291 293 290 288
283 290 296 282 288 282 272 266 267 266 264 264 260 264 264 265 268 269 272 277 279 281 282 282 283 284 285 285 289 292 291 291
281 286 297 276 284 287 280 272 267 267 267 266 265 266 267 269 269 270 268 269 272 274 276 280 282 286 288 288 290 290 291 291
277 284 289 270 276 284 285 282 278 273 271 269 269 271 271 271 271 271 272 274 275 277 280 282 284 287 288 287 289 290 292 294
Height
10831 10832 10833 10835 10836 10838 10838 10839 10840 10841 10842 10843 10843 10841 10841 10841 10841 10840 10840 10839 10838 10838 10838 10836 10836 10835 10833 10831 10829 10827 10825 10824
10824 10827 10827 10827 10828 10829 10830 10832 10835 10837 10838 10838 10836 10837 10837 10836 10835 10835 10835 10834 10833 10833 10832 10831 10831 10831 10828 10826 10824 10821 10819 10817
10816 10819 10819 10820 10819 10820 10823 10828 10830 10831 10830 10831 10830 10831 10831 10831 10830 10830 10829 10829 10828 10827 10826 10825 10825 10825 10824 10820 10817 10815 10812 10810
10806 10809 10811 10810 10811 10814 10819 10822 10821 10822 10822 10824 10823 10825 10825 10824 10823 10823 10825 10824 10822 10821 10819 10818 10818 10818 10816 10814 10813 10809 10806 10803
10795 10798 10800 10801 10803 10808 10811 10811 10812 10815 10815 10817 10818 10817 10818 10816 10817 10818 10818 10817 10816 10812 10812 10813 10811 10810 10809 10807 10803 10801 10798 10795
10785 10789 10792 10794 10796 10799 10801 10802 10804 10807 10808 10809 10810 10810 10809 10809 10811 10811 10810 10811 10809 10805 10805 10807 10805 10802 10800 10797 10794 10791 10788 10784
10779 10782 10783 10786 10787 10791 10792 10794 10797 10799 10800 10801 10800 10801 10802 10802 10802 10802 10804 10804 10799 10797 10796 10796 10798 10793 10790 10787 10784 10781 10777 10773
10774 10776 10778 10779 10779 10780 10782 10785 10788 10790 10791 10792 10791 10792 10794 10793 10792 10795 10796 10794 10791 10788 10786 10784 10787 10785 10782 10776 10772 10770 10766 10761
10767 10769 10770 10772 10771 10770 10771 10775 10778 10780 10781 10782 10782 10782 10783 10782 10784 10786 10786 10784 10782 10779 10777 10773 10775 10774 10769 10765 10761 10759 10754 10751
10757 10760 10763 10763 10762 10759 10760 10764 10768 10770 10772 10771 10772 10773 10772 10773 10776 10775 10775 10773 10773 10772 10768 10763 10762 10761 10757 10753 10749 10748 10742 10736
10747 10748 10750 10751 10750 10750 10750 10752 10755 10759 10760 10761 10763 10762 10762 10764 10766 10765 10765 10762 10763 10762 10759 10753 10751 10747 10745 10741 10740 10737 10729 10723
10737 10738 10738 10738 10737 10737 10738 10739 10741 10747 10749 10751 10752 10751 10752 10753 10754 10756 10754 10753 10752 10751 10748 10744 10742 10737 10732 10727 10725 10721 10716 10712
10730 10730 10729 10727 10726 10725 10725 10727 10730 10734 10737 10740 10742 10742 10743 10744 10743 10743 10743 10742 10740 10737 10737 10734 10729 10726 10722 10716 10712 10706 10701 10699
10722 10720 10719 10716 10715 10714 10715 10717 10719 10722 10725 10729 10730 10731 10733 10734 10734 10733 10730 10728 10727 10725 10723 10720 10715 10710 10709 10705 10699 10691 10686 10683
10713 10711 10710 10707 10704 10705 10705 10707 10710 10712 10714 10717 10720 10721 10720 10723 10723 10722 10719 10717 10715 10713 10711 10709 10704 10699 10695 10691 10686 10678 10672 10670
10703 10703 10701 10698 10696 10695 10695 10698 10700 10702 10703 10706 10708 10709 10710 10711 10712 10711 10708 10705 10704 10702 10699 10696 10693 10689 10683 10678 10672 10666 10656 10649
10695 10694 10693 10690 10688 10686 10687 10689 10691 10693 10694 10696 10697 10699 10700 10700 10699 10699 10698 10694 10690 10688 10684 10681 10678 10676 10668 10663 10657 10649 10641 10634
10685 10685 10685 10683 10681 10680 10680 10681 10682 10684 10685 10686 10687 10687 10688 10688 10687 10686 10685 10682 10678 10674 10669 10666 10661 10658 10652 10648 10640 10633 10625 10617
10676 10677 10678 10677 10674 10673 10672 10673 10674 10675 10676 10676 10677 10676 10676 10675 10674 10673 10672 10670 10665 10661 10657 10651 10647 10641 10634 10628 10622 10615 10607 10600
10668 10669 10669 10668 10668 10668 10666 10665 10665 10666 10666 10666 10666 10665 10665 10664 10662 10660 10658 10655 10652 10648 10642 10637 10632 10625 10619 10613 10607 10600 10592 10583